Stations météo

Publicité
Lyon/Satolas, France (7481): Température de l'air & dewpoint: 13.04.2019 04:00:00 - 19.04.2019 04:00:00 (CEST)Lyon/Satolas, France (7481): Température de l'air 5cm: 13.04.2019 04:00:00 - 19.04.2019 04:00:00 (CEST)Lyon/Satolas, France (7481): Température de l'air -20cm & Température de l'air -100cm: 13.04.2019 04:00:00 - 19.04.2019 04:00:00 (CEST)Lyon/Satolas, France (7481): Vitesse du vent & gusts: 13.04.2019 04:00:00 - 19.04.2019 04:00:00 (CEST)Lyon/Satolas, France (7481): Direction du vent: 13.04.2019 04:00:00 - 19.04.2019 04:00:00 (CEST)Lyon/Satolas, France (7481): reduced air pressure: 13.04.2019 04:00:00 - 19.04.2019 04:00:00 (CEST)Lyon/Satolas, France (7481): visibility: 13.04.2019 04:00:00 - 19.04.2019 04:00:00 (CEST)Lyon/Satolas, France (7481): Quantités de précipitations: 13.04.2019 04:00:00 - 19.04.2019 04:00:00 (CEST)
Date & Time tt [°C] td [°C] tt 5cm [°C] tt -20cm [°C] tt -100cm [°C] ff [km/h] ff [knt] fx [km/h] fx [knt] dd ppp [hPa] vv [km] rr [mm]
19.04.2019 04:00:00 13,9 4,5 11,9 14,1 11,4 9 5 22 12 SE 1022,7 30 0,0
19.04.2019 03:00:00 13,7 5,1 11,0 14,2 11,4 12 7 21 12 SSE 1022,6 30 0,0
19.04.2019 02:00:00 14,9 4,6 12,9 14,5 11,4 14 8 21 12 SSE 1022,4 30 0,0
19.04.2019 01:00:00 16,2 4,2 14,3 14,7 11,3 10 5 20 11 SSE 1022,1 30 0,0
19.04.2019 00:00:00 17,1 4,1 15,4 14,9 11,3 14 8 29 15 S 1021,7 38 0,0
18.04.2019 23:00:00 17,7 3,6 15,7 15,2 11,3 11 6 26 14 S 1021,1 41 0,0
18.04.2019 22:00:00 17,7 5,0 15,9 15,4 11,3 11 6 22 12 SSE 1020,7 30 0,0
18.04.2019 21:00:00 18,9 5,3 17,0 15,6 11,3 13 7 17 9 SSE 1019,7 30 0,0
18.04.2019 20:00:00 20,2 5,4 18,7 15,6 11,3 11 6 16 9 S 1019,0 40 0,0
18.04.2019 19:00:00 21,3 5,2 20,8 15,6 11,3 15 8 23 12 S 1018,4 40 0,0
18.04.2019 18:00:00 21,8 4,8 22,9 15,5 11,3 13 7 29 16 S 1017,9 40 0,0
18.04.2019 17:00:00 22,2 5,2 24,7 15,1 11,2 19 11 32 17 S 1017,7 40 0,0
18.04.2019 16:00:00 21,9 5,3 24,4 14,7 11,2 16 9 33 18 S 1017,9 40 0,0
18.04.2019 15:00:00 21,0 4,1 24,3 14,1 11,2 22 12 34 19 SSW 1018,3 40 0,0
18.04.2019 14:00:00 20,6 4,2 23,7 13,5 11,2 22 12 37 20 S 1018,5 40 0,0
18.04.2019 13:00:00 19,4 4,3 23,6 12,9 11,2 19 10 32 17 S 1019,2 40 0,0
18.04.2019 12:00:00 18,4 3,4 20,6 12,5 11,2 20 11 32 17 S 1019,6 40 0,0
18.04.2019 11:00:00 17,4 2,9 20,9 12,3 11,2 23 12 33 18 S 1019,9 40 0,0
18.04.2019 10:00:00 16,5 3,9 15,2 12,2 11,1 16 8 27 14 SSE 1020,1 40 0,0
18.04.2019 09:00:00 13,5 5,9 12,5 12,3 11,1 14 8 22 12 SE 1020,3 40 0,0
18.04.2019 08:00:00 12,1 6,4 10,4 12,4 11,1 17 9 23 12 SE 1020,1 40 0,0
18.04.2019 07:00:00 11,1 6,0 8,4 12,6 11,1 17 9 24 13 SE 1019,5 40 0,0
18.04.2019 06:00:00 10,1 5,9 8,2 12,8 11,1 16 9 22 12 SE 1019,5 40 0,0
18.04.2019 05:00:00 11,5 6,2 9,6 13,1 11,1 14 8 19 11 SE 1019,3 50 0,0
18.04.2019 04:00:00 12,0 6,1 10,8 13,3 11,1 14 8 26 14 SE 1019,5 50 0,0
18.04.2019 03:00:00 13,3 5,4 12,3 13,5 11,1 19 10 40 22 SSE 1019,5 50 0,0
18.04.2019 02:00:00 13,6 5,0 12,6 13,8 11,1 18 10 48 26 SE 1019,8 50 0,0
18.04.2019 01:00:00 14,3 4,6 13,6 14,1 11,0 26 14 42 23 S 1019,3 50 0,0
18.04.2019 00:00:00 14,9 5,1 14,0 14,3 11,1 27 14 45 24 S 1018,7 45 0,0
17.04.2019 23:00:00 15,4 7,2 14,0 14,6 11,0 16 9 25 14 S 1018,2 45 0,0
17.04.2019 22:00:00 16,6 5,8 14,7 14,9 11,1 14 8 23 12 SSE 1017,9 45 0,0
17.04.2019 21:00:00 16,9 6,1 15,0 15,2 11,1 11 6 18 10 SSE 1017,3 45 0,0
17.04.2019 20:00:00 19,0 5,4 17,8 15,3 11,1 13 7 24 13 SSE 1016,5 45 0,0
17.04.2019 19:00:00 20,2 5,4 21,2 15,2 11,0 19 10 29 15 S 1016,0 45 0,0
17.04.2019 18:00:00 21,1 4,6 23,3 14,9 11,0 13 7 29 16 S 1015,9 45 0,0
17.04.2019 17:00:00 21,1 5,4 24,9 14,4 11,0 11 6 31 17 S 1016,1 45 0,0
17.04.2019 16:00:00 20,8 3,9 24,5 13,8 11,0 14 7 31 17 S 1016,8 45 0,0
17.04.2019 15:00:00 19,8 3,9 23,1 13,2 11,1 18 10 34 18 S 1017,6 19 0,0
17.04.2019 14:00:00 19,0 5,8 23,7 12,2 11,0 19 11 31 17 S 1018,3 19 0,0
17.04.2019 13:00:00 17,4 7,4 22,7 11,4 11,0 4 2 22 12 E 1018,8 19 0,0
17.04.2019 12:00:00 16,2 8,4 21,3 10,7 11,0 6 3 18 10 SSE 1019,5 19 0,0
17.04.2019 11:00:00 14,7 8,4 18,9 10,2 11,0 7 4 14 8 ESE 1020,1 19 0,0
17.04.2019 10:00:00 12,4 8,1 15,7 9,9 11,0 5 3 8 5 ESE 1020,6 17 0,0
17.04.2019 09:00:00 10,4 7,6 12,3 10,0 11,0 6 3 8 5 SSE 1021,0 9 0,0
17.04.2019 08:00:00 8,3 6,8 5,0 10,1 11,0 4 2 5 3 SSE 1021,3 6 0,0
17.04.2019 07:00:00 7,2 6,0 3,7 10,3 11,0 4 2 6 4 S 1021,0 10 0,0
17.04.2019 06:00:00 7,6 6,2 4,3 10,5 11,0 7 4 12 7 SSE 1020,9 8 0,0
17.04.2019 05:00:00 8,3 6,1 5,6 10,6 11,0 7 4 10 6 SSE 1020,6 14 0,0
17.04.2019 04:00:00 8,7 6,7 7,3 10,8 11,0 10 5 12 7 SSE 1020,9 13 0,0
17.04.2019 03:00:00 9,0 6,6 7,7 10,9 11,0 10 5 16 9 SE 1021,0 14 0,0
17.04.2019 02:00:00 9,5 6,9 8,0 11,1 11,0 10 5 17 9 SSE 1021,2 20 0,0
17.04.2019 01:00:00 10,0 6,5 6,8 11,3 11,0 14 8 17 9 SE 1021,1 20 0,0
17.04.2019 00:00:00 9,4 6,7 5,0 11,4 11,0 3 2 9 5 S 1021,2 20 0,0
16.04.2019 23:00:00 10,9 7,0 8,7 11,6 11,0 5 3 13 7 ESE 1021,0 50 0,0
16.04.2019 22:00:00 11,2 6,7 9,5 11,7 11,0 10 5 21 11 SE 1020,5 50 0,0
16.04.2019 21:00:00 12,7 6,7 11,5 11,8 11,0 11 6 22 12 SSE 1020,0 50 0,0
16.04.2019 20:00:00 13,1 6,4 12,3 11,8 11,0 11 6 28 15 SSE 1019,7 50 0,0
16.04.2019 19:00:00 13,9 6,7 13,9 11,8 11,0 14 8 28 15 S 1019,3 50 0,0
16.04.2019 18:00:00 13,3 6,9 13,3 11,8 11,0 15 8 36 19 S 1019,3 50 0,0
16.04.2019 17:00:00 12,7 6,9 13,4 11,7 10,9 21 11 36 20 S 1019,4 10 0,0
16.04.2019 16:00:00 12,5 8,0 12,2 11,6 11,0 19 11 36 19 S 1019,5 35 0,0
16.04.2019 15:00:00 11,8 7,7 12,3 11,5 11,0 21 12 45 24 S 1019,9 30 0,2
16.04.2019 14:00:00 11,6 8,1 11,5 11,4 11,0 23 12 39 21 S 1019,8 25 0,0
16.04.2019 13:00:00 11,5 7,8 11,7 11,3 10,9 19 11 33 18 S 1019,9 19 0,0
16.04.2019 12:00:00 11,1 7,2 11,1 11,3 10,9 22 12 38 21 S 1019,8 30 0,0
16.04.2019 11:00:00 10,7 7,6 10,1 11,3 10,9 18 10 32 18 S 1019,6 20 0,2
16.04.2019 10:00:00 10,4 7,8 9,1 11,3 10,9 16 9 27 15 S 1019,3 15 0,8
16.04.2019 09:00:00 10,2 6,7 8,6 11,4 10,9 12 7 30 16 S 1019,1 12 1,4
16.04.2019 08:00:00 10,3 6,6 8,7 11,5 10,9 17 9 32 17 SSE 1018,5 12 0,8
16.04.2019 07:00:00 11,3 5,8 10,1 11,6 10,9 23 12 44 24 S 1018,0 30 0,0
16.04.2019 06:00:00 12,5 4,0 11,9 11,7 10,9 26 14 47 25 S 1017,3 40 0,0
16.04.2019 05:00:00 12,7 3,4 12,1 11,8 10,9 19 11 36 19 S 1017,3 40 0,0
16.04.2019 04:00:00 12,7 3,1 11,7 11,9 10,9 23 12 37 20 SSW 1017,2 40 0,0
16.04.2019 03:00:00 12,3 4,0 11,6 12,0 10,9 15 8 30 16 S 1016,9 40 0,0
16.04.2019 02:00:00 12,6 3,5 11,6 12,2 10,9 15 8 39 21 SSE 1016,8 40 0,0
16.04.2019 01:00:00 12,3 3,8 11,6 12,4 10,9 24 13 50 27 SSE 1016,3 40 0,0
16.04.2019 00:00:00 12,6 4,5 11,9 12,6 10,9 27 15 58 31 S 1016,2 40 0,0
15.04.2019 23:00:00 12,8 5,0 12,1 12,8 10,9 29 16 52 28 S 1015,9 40 0,0
15.04.2019 22:00:00 13,6 5,0 12,8 13,0 10,9 26 14 49 26 S 1015,6 40 0,0
15.04.2019 21:00:00 14,5 3,9 13,6 13,2 10,9 25 14 44 24 S 1015,2 50 0,0
15.04.2019 20:00:00 15,9 3,0 15,1 13,3 10,9 22 12 37 20 S 1014,4 40 0,0
15.04.2019 19:00:00 17,2 1,6 17,7 13,3 10,9 23 13 47 25 S 1013,9 40 0,0
15.04.2019 18:00:00 17,4 0,5 19,2 13,1 11,0 19 10 37 20 SSE 1013,8 40 0,0
15.04.2019 17:00:00 17,7 -0,6 20,4 12,7 10,9 20 11 40 21 SSE 1014,4 30 0,0
15.04.2019 16:00:00 17,3 -0,5 20,6 12,0 11,0 19 10 32 17 S 1015,1 30 0,0
15.04.2019 15:00:00 16,2 -0,5 20,1 11,2 11,0 16 9 31 17 S 1016,3 25 0,0
15.04.2019 14:00:00 14,3 1,9 18,9 10,4 11,0 8 5 19 11 ESE 1017,4 15 0,0
15.04.2019 13:00:00 11,3 2,1 17,2 9,5 11,0 10 5 21 11 E 1018,9 8 0,0
15.04.2019 12:00:00 9,7 2,3 15,7 8,9 11,0 0 0 15 8 N 1019,9 12 0,0
15.04.2019 11:00:00 7,6 1,6 13,7 8,5 11,0 6 3 16 9 E 1020,6 10 0,0
15.04.2019 10:00:00 5,6 2,1 10,8 8,4 11,0 0 0 8 4 N 1021,0 7 0,0
15.04.2019 09:00:00 3,7 1,1 4,8 8,5 11,0 0 0 3 2 N 1021,6 6 0,0
15.04.2019 08:00:00 1,7 -0,2 -3,4 8,7 11,0 0 0 6 4 N 1021,8 7 0,0
15.04.2019 07:00:00 0,5 -1,3 -3,5 8,9 11,0 2 1 5 3 SSW 1021,6 7 0,0
15.04.2019 06:00:00 1,4 -0,7 -2,3 9,2 11,0 0 0 8 4 N 1021,2 8 0,0
15.04.2019 05:00:00 1,7 -0,9 -3,0 9,5 11,0 0 0 6 3 N 1021,4 8 0,0
15.04.2019 04:00:00 2,1 -0,8 -2,4 9,8 11,0 3 2 9 5 WNW 1021,6 10 0,0
15.04.2019 03:00:00 2,6 -0,7 0,3 10,0 11,0 5 3 12 7 WSW 1021,7 10 0,0
15.04.2019 02:00:00 2,7 -1,3 1,0 10,4 11,0 11 6 20 11 NNW 1021,6 12 0,0
15.04.2019 01:00:00 3,5 -1,9 1,0 10,7 11,0 9 5 21 11 WNW 1021,5 14 0,0
15.04.2019 00:00:00 4,6 -2,3 0,5 11,0 11,0 6 4 11 6 WNW 1021,1 16 0,0
14.04.2019 23:00:00 5,2 -2,9 4,2 11,4 11,0 9 5 29 16 NNW 1020,5 17 0,0
14.04.2019 22:00:00 5,9 -3,0 4,8 11,7 11,0 18 10 36 19 NW 1020,5 20 0,0
14.04.2019 21:00:00 7,1 -3,2 6,1 11,9 11,0 20 11 31 17 NNW 1020,0 20 0,0
14.04.2019 20:00:00 8,5 -2,8 8,6 12,2 11,0 23 13 41 22 NNW 1019,6 30 0,0
14.04.2019 19:00:00 9,2 -3,7 10,4 12,2 11,0 26 14 39 21 NNW 1018,6 35 0,0
14.04.2019 18:00:00 10,1 -3,3 14,2 11,9 11,0 26 14 37 20 NNW 1018,1 35 0,0
14.04.2019 17:00:00 10,0 -4,4 15,3 11,6 11,1 24 13 41 22 N 1017,9 35 0,0
14.04.2019 16:00:00 10,0 -4,0 15,0 11,1 11,0 27 15 42 23 NNW 1018,2 35 0,0
14.04.2019 15:00:00 9,1 -4,8 14,7 10,5 11,0 29 16 51 27 NNW 1018,6 35 0,0
14.04.2019 14:00:00 8,6 -4,9 14,0 9,9 11,1 26 14 44 24 N 1018,7 30 0,0
14.04.2019 13:00:00 7,5 -6,3 13,0 9,4 11,1 27 15 40 22 NNW 1018,9 30 0,0
14.04.2019 12:00:00 6,7 -4,7 12,1 8,9 11,0 27 15 42 23 N 1018,9 14 0,0
14.04.2019 11:00:00 5,9 -4,3 11,1 8,7 11,1 28 15 41 22 N 1019,2 25 0,0
14.04.2019 10:00:00 4,6 -3,2 8,6 8,7 11,0 21 11 29 15 N 1019,0 25 0,0
14.04.2019 09:00:00 2,4 -3,3 4,1 8,8 11,1 15 8 22 12 NNW 1019,2 13 0,0
14.04.2019 08:00:00 1,1 -3,4 -1,5 9,1 11,1 11 6 16 9 NNW 1019,7 25 0,0
14.04.2019 07:00:00 0,1 -3,6 -1,7 9,4 11,0 4 2 11 6 NNW 1019,5 17 0,0
14.04.2019 06:00:00 1,2 -3,5 -0,2 9,6 11,0 4 2 17 9 N 1019,3 17 0,0
14.04.2019 05:00:00 1,2 -3,3 -0,3 9,9 11,1 7 4 11 6 N 1019,1 17 0,0
14.04.2019 04:00:00 1,6 -3,3 0,1 10,3 11,1 10 5 20 11 N 1019,1 15 0,0
14.04.2019 03:00:00 2,4 -3,5 1,3 10,6 11,0 13 7 23 13 NNW 1018,8 13 0,0
14.04.2019 02:00:00 3,4 -2,8 2,1 10,9 11,0 18 10 29 16 NNW 1019,0 13 0,0
14.04.2019 01:00:00 4,2 -2,0 3,2 11,3 11,1 19 10 30 16 NNW 1019,2 13 0,0
14.04.2019 00:00:00 4,4 -1,0 2,8 11,6 11,1 14 8 23 12 NNW 1019,1 13 0,0
13.04.2019 23:00:00 5,6 -1,3 3,0 12,0 11,1 9 5 14 8 N 1019,0 13 0,0
13.04.2019 22:00:00 6,8 -1,4 4,5 12,3 11,1 8 4 16 9 N 1019,3 13 0,0
13.04.2019 21:00:00 7,6 -1,4 5,9 12,6 11,1 12 7 21 12 NNE 1018,8 15 0,0
13.04.2019 20:00:00 9,6 -1,5 9,3 12,8 11,1 19 10 33 18 NNE 1018,2 15 0,0
13.04.2019 19:00:00 10,7 -2,7 13,6 12,8 11,1 20 11 40 21 N 1017,9 12 0,0
13.04.2019 18:00:00 11,3 -2,2 14,4 12,6 11,1 25 13 37 20 N 1017,9 12 0,0
13.04.2019 17:00:00 11,5 -1,7 16,9 12,3 11,1 21 12 36 19 NNW 1017,9 10 0,0
13.04.2019 16:00:00 11,0 -1,8 16,9 11,8 11,1 21 11 36 19 NNW 1018,2 10 0,0
13.04.2019 15:00:00 10,4 -2,0 15,3 11,1 11,1 21 11 40 22 N 1019,0 10 0,0
13.04.2019 14:00:00 10,3 -2,1 15,4 10,5 11,1 21 11 41 22 N 1019,0 10 0,0
13.04.2019 13:00:00 9,8 -2,2 15,6 9,9 11,1 20 11 34 19 NNW 1019,4 10 0,0
13.04.2019 12:00:00 8,5 0,0 14,8 9,5 11,1 18 10 33 18 NNW 1019,9 10 0,0
13.04.2019 11:00:00 7,0 -0,7 12,0 9,2 11,1 16 8 27 15 NNW 1020,3 9 0,0
13.04.2019 10:00:00 5,3 -0,5 9,0 9,2 11,1 14 7 25 14 N 1020,6 9 0,0
13.04.2019 09:00:00 4,1 -1,3 5,4 9,4 11,1 16 9 23 12 N 1020,7 11 0,0
13.04.2019 08:00:00 3,0 -0,8 0,8 9,6 11,1 10 5 15 8 N 1020,5 10 0,0
13.04.2019 07:00:00 2,1 -1,5 -0,3 9,8 11,1 10 6 14 7 N 1020,1 12 0,0
13.04.2019 06:00:00 2,6 -1,8 -0,4 10,1 11,1 7 4 11 6 NW 1019,4 15 0,0
13.04.2019 05:00:00 3,6 -1,6 1,9 10,4 11,1 6 4 11 6 W 1019,3 13 0,0
13.04.2019 04:00:00 4,3 -0,7 3,0 10,7 11,1 9 5 22 12 NW 1019,3 15 0,0

tt = Température de l'air
td = dewpoint
tt 5cm = Température de l'air 5cm
tt -20cm = Température de l'air -20cm
tt -100cm = Température de l'air -100cm
ff = Vitesse du vent
fx = gusts
dd = Direction du vent
ppp = reduced air pressure
vv = visibility
rr = Quantités de précipitations

stations d'obs. à proximité